Year,Month,Day,Hour,Minute,Value (Times are PST for temperature in C)
2009,07,01,00,00,12.20
2009,07,01,00,01,12.20
2009,07,01,00,02,12.20
2009,07,01,00,03,12.20
2009,07,01,00,04,12.20
2009,07,01,00,05,12.20
2009,07,01,00,06,12.20
2009,07,01,00,07,12.20
2009,07,01,00,08,12.20
2009,07,01,00,09,12.20
2009,07,01,00,10,12.20
2009,07,01,00,11,12.20
2009,07,01,00,12,12.20
2009,07,01,00,13,12.20
2009,07,01,00,14,12.10
2009,07,01,00,15,12.10
2009,07,01,00,16,12.10
2009,07,01,00,17,12.10
2009,07,01,00,18,12.10
2009,07,01,00,19,12.10
2009,07,01,00,20,12.10
2009,07,01,00,21,12.10
2009,07,01,00,22,12.00
2009,07,01,00,23,12.00
2009,07,01,00,24,12.00
2009,07,01,00,25,12.00
2009,07,01,00,26,12.00
2009,07,01,00,27,11.90
2009,07,01,00,28,11.90
2009,07,01,00,29,11.90
2009,07,01,00,30,11.90
2009,07,01,00,31,11.90
2009,07,01,00,32,11.90
2009,07,01,00,33,11.80
2009,07,01,00,34,11.80
2009,07,01,00,35,11.80
2009,07,01,00,36,11.80
2009,07,01,00,37,11.80
2009,07,01,00,38,11.80
2009,07,01,00,39,11.80
2009,07,01,00,40,11.70
2009,07,01,00,41,11.70
2009,07,01,00,42,11.70
2009,07,01,00,43,11.70
2009,07,01,00,44,11.70
2009,07,01,00,45,11.70
2009,07,01,00,46,11.70
2009,07,01,00,47,11.60
2009,07,01,00,48,11.60
2009,07,01,00,49,11.60
2009,07,01,00,50,11.60
2009,07,01,00,51,11.60
2009,07,01,00,52,11.60
2009,07,01,00,53,11.60
2009,07,01,00,54,11.60
2009,07,01,00,55,11.60
2009,07,01,00,56,11.60
2009,07,01,00,57,11.60
2009,07,01,00,58,11.60
2009,07,01,00,59,11.60
2009,07,01,01,00,11.60
2009,07,01,01,01,11.60
2009,07,01,01,02,11.60
2009,07,01,01,03,11.60
2009,07,01,01,04,11.60
2009,07,01,01,05,11.60
2009,07,01,01,06,11.60
2009,07,01,01,07,11.60
2009,07,01,01,08,11.60
2009,07,01,01,09,11.60
2009,07,01,01,10,11.50
2009,07,01,01,11,11.40
2009,07,01,01,12,11.40
2009,07,01,01,13,11.40
2009,07,01,01,14,11.40
2009,07,01,01,15,11.40
2009,07,01,01,16,11.40
2009,07,01,01,17,11.40
2009,07,01,01,18,11.40
2009,07,01,01,19,11.40
2009,07,01,01,20,11.40
2009,07,01,01,21,11.40
2009,07,01,01,22,11.40
2009,07,01,01,23,11.40
2009,07,01,01,24,11.40
2009,07,01,01,25,11.40
2009,07,01,01,26,11.40
2009,07,01,01,27,11.40
2009,07,01,01,28,11.40
2009,07,01,01,29,11.40
2009,07,01,01,30,11.40
2009,07,01,01,31,11.30
2009,07,01,01,32,11.30
2009,07,01,01,33,11.20
2009,07,01,01,34,11.20
2009,07,01,01,35,11.10
2009,07,01,01,36,11.10
2009,07,01,01,37,11.10
2009,07,01,01,38,11.10
2009,07,01,01,39,11.10
2009,07,01,01,40,11.10
2009,07,01,01,41,11.10
2009,07,01,01,42,11.10
2009,07,01,01,43,11.10
2009,07,01,01,44,11.10
2009,07,01,01,45,11.10
2009,07,01,01,46,11.10
2009,07,01,01,47,11.00
2009,07,01,01,48,10.90
2009,07,01,01,49,10.90
2009,07,01,01,50,10.90
2009,07,01,01,51,10.80
2009,07,01,01,52,10.80
2009,07,01,01,53,10.70
2009,07,01,01,54,10.70
2009,07,01,01,55,10.60
2009,07,01,01,56,10.60
2009,07,01,01,57,10.60
2009,07,01,01,58,10.60
2009,07,01,01,59,10.60
2009,07,01,02,00,10.60
2009,07,01,02,01,10.60
2009,07,01,02,02,10.60
2009,07,01,02,03,10.60
2009,07,01,02,04,10.60
2009,07,01,02,05,10.60
2009,07,01,02,06,10.60
2009,07,01,02,07,10.60
2009,07,01,02,08,10.60
2009,07,01,02,09,10.60
2009,07,01,02,10,10.60
2009,07,01,02,11,10.60
2009,07,01,02,12,10.60
2009,07,01,02,13,10.60
2009,07,01,02,14,10.60
2009,07,01,02,15,10.60
2009,07,01,02,16,10.60
2009,07,01,02,17,10.70
2009,07,01,02,18,10.70
2009,07,01,02,19,10.70
2009,07,01,02,20,10.70
2009,07,01,02,21,10.70
2009,07,01,02,22,10.70
2009,07,01,02,23,10.70
2009,07,01,02,24,10.70
2009,07,01,02,25,10.70
2009,07,01,02,26,10.70
2009,07,01,02,27,10.70
2009,07,01,02,28,10.70
2009,07,01,02,29,10.70
2009,07,01,02,30,10.70
2009,07,01,02,31,10.70
2009,07,01,02,32,10.80
2009,07,01,02,33,10.70
2009,07,01,02,34,10.60
2009,07,01,02,35,10.60
2009,07,01,02,36,10.60
2009,07,01,02,37,10.60
2009,07,01,02,38,10.60
2009,07,01,02,39,10.40
2009,07,01,02,40,10.40
2009,07,01,02,41,10.40
2009,07,01,02,42,10.40
2009,07,01,02,43,10.40
2009,07,01,02,44,10.30
2009,07,01,02,45,10.30
2009,07,01,02,46,10.30
2009,07,01,02,47,10.20
2009,07,01,02,48,10.20
2009,07,01,02,49,10.20
2009,07,01,02,50,10.20
2009,07,01,02,51,10.10
2009,07,01,02,52,10.10
2009,07,01,02,53,10.10
2009,07,01,02,54,10.10
2009,07,01,02,55,10.10
2009,07,01,02,56,10.10
2009,07,01,02,57,10.10
2009,07,01,02,58,9.90
2009,07,01,02,59,9.90
2009,07,01,03,00,9.90
2009,07,01,03,01,9.90
2009,07,01,03,02,9.90
2009,07,01,03,03,9.90
2009,07,01,03,04,9.90
2009,07,01,03,05,9.90
2009,07,01,03,06,9.80
2009,07,01,03,07,9.80
2009,07,01,03,08,9.80
2009,07,01,03,09,9.70
2009,07,01,03,10,9.70
2009,07,01,03,11,9.70
2009,07,01,03,12,9.70
2009,07,01,03,13,9.70
2009,07,01,03,14,9.70
2009,07,01,03,15,9.70
2009,07,01,03,16,9.70
2009,07,01,03,17,9.70
2009,07,01,03,18,9.60
2009,07,01,03,19,9.60
2009,07,01,03,20,9.60
2009,07,01,03,21,9.60
2009,07,01,03,22,9.60
2009,07,01,03,23,9.60
2009,07,01,03,24,9.60
2009,07,01,03,25,9.60
2009,07,01,03,26,9.60
2009,07,01,03,27,9.60
2009,07,01,03,28,9.60
2009,07,01,03,29,9.60
2009,07,01,03,30,9.60
2009,07,01,03,31,9.60
2009,07,01,03,32,9.60
2009,07,01,03,33,9.60
2009,07,01,03,34,9.60
2009,07,01,03,35,9.60
2009,07,01,03,36,9.60
2009,07,01,03,37,9.60
2009,07,01,03,38,9.60
2009,07,01,03,39,9.60
2009,07,01,03,40,9.60
2009,07,01,03,41,9.60
2009,07,01,03,42,9.60
2009,07,01,03,43,9.60
2009,07,01,03,44,9.50
2009,07,01,03,45,9.50
2009,07,01,03,46,9.50
2009,07,01,03,47,9.50
2009,07,01,03,48,9.40
2009,07,01,03,49,9.40
2009,07,01,03,50,9.40
2009,07,01,03,51,9.40
2009,07,01,03,52,9.40
2009,07,01,03,53,9.40
2009,07,01,03,54,9.40
2009,07,01,03,55,9.40
2009,07,01,03,56,9.40
2009,07,01,03,57,9.40
2009,07,01,03,58,9.30
2009,07,01,03,59,9.30
2009,07,01,04,00,9.30
2009,07,01,04,01,9.30
2009,07,01,04,02,9.30
2009,07,01,04,03,9.20
2009,07,01,04,04,9.20
2009,07,01,04,05,9.20
2009,07,01,04,06,9.20
2009,07,01,04,07,9.20
2009,07,01,04,08,9.20
2009,07,01,04,09,9.20
2009,07,01,04,10,9.10
2009,07,01,04,11,9.10
2009,07,01,04,12,9.10
2009,07,01,04,13,9.10
2009,07,01,04,14,9.00
2009,07,01,04,15,9.00
2009,07,01,04,16,9.00
2009,07,01,04,17,9.00
2009,07,01,04,18,9.00
2009,07,01,04,19,9.00
2009,07,01,04,20,9.00
2009,07,01,04,21,8.90
2009,07,01,04,22,8.90
2009,07,01,04,23,8.90
2009,07,01,04,24,8.90
2009,07,01,04,25,8.90
2009,07,01,04,26,8.90
2009,07,01,04,27,8.90
2009,07,01,04,28,8.90
2009,07,01,04,29,8.90
2009,07,01,04,30,8.80
2009,07,01,04,31,8.80
2009,07,01,04,32,8.80
2009,07,01,04,33,8.80
2009,07,01,04,34,8.80
2009,07,01,04,35,8.80
2009,07,01,04,36,8.80
2009,07,01,04,37,8.80
2009,07,01,04,38,8.90
2009,07,01,04,39,8.90
2009,07,01,04,40,8.90
2009,07,01,04,41,8.90
2009,07,01,04,42,9.00
2009,07,01,04,43,9.00
2009,07,01,04,44,9.00
2009,07,01,04,45,9.00
2009,07,01,04,46,9.10
2009,07,01,04,47,9.10
2009,07,01,04,48,9.10
2009,07,01,04,49,9.10
2009,07,01,04,50,9.10
2009,07,01,04,51,9.10
2009,07,01,04,52,9.10
2009,07,01,04,53,9.10
2009,07,01,04,54,9.10
2009,07,01,04,55,9.10
2009,07,01,04,56,9.10
2009,07,01,04,57,9.10
2009,07,01,04,58,9.10
2009,07,01,04,59,9.10
2009,07,01,05,00,9.10
2009,07,01,05,01,9.10
2009,07,01,05,02,9.10
2009,07,01,05,03,9.00
2009,07,01,05,04,9.00
2009,07,01,05,05,9.00
2009,07,01,05,06,9.10
2009,07,01,05,07,9.10
2009,07,01,05,08,9.10
2009,07,01,05,09,9.10
2009,07,01,05,10,9.10
2009,07,01,05,11,9.10
2009,07,01,05,12,9.10
2009,07,01,05,13,9.00
2009,07,01,05,14,9.00
2009,07,01,05,15,9.00
2009,07,01,05,16,9.00
2009,07,01,05,17,8.90
2009,07,01,05,18,8.90
2009,07,01,05,19,8.90
2009,07,01,05,20,8.90
2009,07,01,05,21,8.80
2009,07,01,05,22,8.80
2009,07,01,05,23,8.80
2009,07,01,05,24,8.70
2009,07,01,05,25,8.70
2009,07,01,05,26,8.70
2009,07,01,05,27,8.70
2009,07,01,05,28,8.70
2009,07,01,05,29,8.70
2009,07,01,05,30,8.70
2009,07,01,05,31,8.70
2009,07,01,05,32,8.70
2009,07,01,05,33,8.70
2009,07,01,05,34,8.70
2009,07,01,05,35,8.70
2009,07,01,05,36,8.70
2009,07,01,05,37,8.70
2009,07,01,05,38,8.70
2009,07,01,05,39,8.70
2009,07,01,05,40,8.70
2009,07,01,05,41,8.70
2009,07,01,05,42,8.70
2009,07,01,05,43,8.70
2009,07,01,05,44,8.70
2009,07,01,05,45,8.70
2009,07,01,05,46,8.70
2009,07,01,05,47,8.60
2009,07,01,05,48,8.60
2009,07,01,05,49,8.50
2009,07,01,05,50,8.50
2009,07,01,05,51,8.50
2009,07,01,05,52,8.50
2009,07,01,05,53,8.50
2009,07,01,05,54,8.60
2009,07,01,05,55,8.70
2009,07,01,05,56,8.70
2009,07,01,05,57,8.80
2009,07,01,05,58,8.90
2009,07,01,05,59,9.00
2009,07,01,06,00,9.00
2009,07,01,06,01,9.00
2009,07,01,06,02,9.00
2009,07,01,06,03,9.00
2009,07,01,06,04,9.00
2009,07,01,06,05,9.10
2009,07,01,06,06,9.10
2009,07,01,06,07,9.10
2009,07,01,06,08,9.20
2009,07,01,06,09,9.20
2009,07,01,06,10,9.30
2009,07,01,06,11,9.40
2009,07,01,06,12,9.50
2009,07,01,06,13,9.60
2009,07,01,06,14,9.70
2009,07,01,06,15,9.70
2009,07,01,06,16,9.80
2009,07,01,06,17,9.80
2009,07,01,06,18,9.90
2009,07,01,06,19,9.90
2009,07,01,06,20,9.90
2009,07,01,06,21,9.90
2009,07,01,06,22,9.90
2009,07,01,06,23,9.90
2009,07,01,06,24,9.90
2009,07,01,06,25,9.90
2009,07,01,06,26,9.90
2009,07,01,06,27,9.90
2009,07,01,06,28,9.90
2009,07,01,06,29,10.10
2009,07,01,06,30,10.10
2009,07,01,06,31,10.30
2009,07,01,06,32,10.40
2009,07,01,06,33,10.50
2009,07,01,06,34,10.60
2009,07,01,06,35,10.80
2009,07,01,06,36,10.90
2009,07,01,06,37,10.90
2009,07,01,06,38,10.90
2009,07,01,06,39,10.90
2009,07,01,06,40,10.90
2009,07,01,06,41,10.90
2009,07,01,06,42,10.80
2009,07,01,06,43,10.80
2009,07,01,06,44,10.80
2009,07,01,06,45,10.80
2009,07,01,06,46,10.70
2009,07,01,06,47,10.80
2009,07,01,06,48,10.80
2009,07,01,06,49,10.90
2009,07,01,06,50,11.00
2009,07,01,06,51,11.10
2009,07,01,06,52,11.10
2009,07,01,06,53,11.10
2009,07,01,06,54,11.20
2009,07,01,06,55,11.20
2009,07,01,06,56,11.20
2009,07,01,06,57,11.30
2009,07,01,06,58,11.30
2009,07,01,06,59,11.40
2009,07,01,07,00,11.40
2009,07,01,07,01,11.50
2009,07,01,07,02,11.60
2009,07,01,07,03,11.80
2009,07,01,07,04,11.90
2009,07,01,07,05,12.10
2009,07,01,07,06,12.30
2009,07,01,07,07,12.40
2009,07,01,07,08,12.50
2009,07,01,07,09,12.50
2009,07,01,07,10,12.50
2009,07,01,07,11,12.50
2009,07,01,07,12,12.50
2009,07,01,07,13,12.50
2009,07,01,07,14,12.50
2009,07,01,07,15,12.50
2009,07,01,07,16,12.50
2009,07,01,07,17,12.60
2009,07,01,07,18,12.60
2009,07,01,07,19,12.70
2009,07,01,07,20,12.90
2009,07,01,07,21,13.10
2009,07,01,07,22,13.30
2009,07,01,07,23,13.40
2009,07,01,07,24,13.60
2009,07,01,07,25,13.70
2009,07,01,07,26,13.90
2009,07,01,07,27,14.00
2009,07,01,07,28,14.10
2009,07,01,07,29,14.20
2009,07,01,07,30,14.20
2009,07,01,07,31,14.30
2009,07,01,07,32,14.50
2009,07,01,07,33,14.60
2009,07,01,07,34,14.70
2009,07,01,07,35,14.80
2009,07,01,07,36,14.90
2009,07,01,07,37,15.00
2009,07,01,07,38,15.10
2009,07,01,07,39,15.10
2009,07,01,07,40,15.20
2009,07,01,07,41,15.20
2009,07,01,07,42,15.30
2009,07,01,07,43,15.30
2009,07,01,07,44,15.40
2009,07,01,07,45,15.50
2009,07,01,07,46,15.60
2009,07,01,07,47,15.70
2009,07,01,07,48,15.70
2009,07,01,07,49,15.70
2009,07,01,07,50,15.80
2009,07,01,07,51,15.80
2009,07,01,07,52,15.80
2009,07,01,07,53,15.80
2009,07,01,07,54,15.80
2009,07,01,07,55,15.80
2009,07,01,07,56,15.90
2009,07,01,07,57,16.00
2009,07,01,07,58,15.90
2009,07,01,07,59,15.70
2009,07,01,08,00,15.50
2009,07,01,08,01,15.30
2009,07,01,08,02,15.20
2009,07,01,08,03,15.10
2009,07,01,08,04,15.00
2009,07,01,08,05,14.80
2009,07,01,08,06,14.60
2009,07,01,08,07,14.40
2009,07,01,08,08,14.30
2009,07,01,08,09,14.10
2009,07,01,08,10,13.90
2009,07,01,08,11,13.90
2009,07,01,08,12,13.70
2009,07,01,08,13,13.70
2009,07,01,08,14,13.70
2009,07,01,08,15,13.60
2009,07,01,08,16,13.40
2009,07,01,08,17,13.30
2009,07,01,08,18,13.20
2009,07,01,08,19,13.10
2009,07,01,08,20,13.00
2009,07,01,08,21,13.00
2009,07,01,08,22,12.90
2009,07,01,08,23,12.90
2009,07,01,08,24,12.90
2009,07,01,08,25,13.00
2009,07,01,08,26,13.10
2009,07,01,08,27,13.10
2009,07,01,08,28,13.20
2009,07,01,08,29,13.30
2009,07,01,08,30,13.40
2009,07,01,08,31,13.50
2009,07,01,08,32,13.60
2009,07,01,08,33,13.60
2009,07,01,08,34,13.70
2009,07,01,08,35,13.70
2009,07,01,08,36,13.80
2009,07,01,08,37,13.80
2009,07,01,08,38,13.80
2009,07,01,08,39,13.80
2009,07,01,08,40,13.90
2009,07,01,08,41,14.00
2009,07,01,08,42,14.00
2009,07,01,08,43,14.10
2009,07,01,08,44,14.10
2009,07,01,08,45,14.20
2009,07,01,08,46,14.20
2009,07,01,08,47,14.20
2009,07,01,08,48,14.30
2009,07,01,08,49,14.40
2009,07,01,08,50,14.50
2009,07,01,08,51,14.50
2009,07,01,08,52,14.50
2009,07,01,08,53,14.50
2009,07,01,08,54,14.50
2009,07,01,08,55,14.50
2009,07,01,08,56,14.50
2009,07,01,08,57,14.60
2009,07,01,08,58,14.60
2009,07,01,08,59,14.60
2009,07,01,09,00,14.70
2009,07,01,09,01,14.70
2009,07,01,09,02,14.70
2009,07,01,09,03,14.70
2009,07,01,09,04,14.70
2009,07,01,09,05,14.70
2009,07,01,09,06,14.70
2009,07,01,09,07,14.70
2009,07,01,09,08,14.70
2009,07,01,09,09,14.60
2009,07,01,09,10,14.60
2009,07,01,09,11,14.60
2009,07,01,09,12,14.60
2009,07,01,09,13,14.60
2009,07,01,09,14,14.60
2009,07,01,09,15,14.60
2009,07,01,09,16,14.60
2009,07,01,09,17,14.70
2009,07,01,09,18,14.80
2009,07,01,09,19,15.00
2009,07,01,09,20,15.10
2009,07,01,09,21,15.30
2009,07,01,09,22,15.40
2009,07,01,09,23,15.50
2009,07,01,09,24,15.60
2009,07,01,09,25,15.60
2009,07,01,09,26,15.60
2009,07,01,09,27,15.60
2009,07,01,09,28,15.50
2009,07,01,09,29,15.60
2009,07,01,09,30,15.60
2009,07,01,09,31,15.60
2009,07,01,09,32,15.70
2009,07,01,09,33,15.80
2009,07,01,09,34,15.90
2009,07,01,09,35,16.10
2009,07,01,09,36,16.20
2009,07,01,09,37,16.30
2009,07,01,09,38,16.30
2009,07,01,09,39,16.40
2009,07,01,09,40,16.40
2009,07,01,09,41,16.60
2009,07,01,09,42,16.70
2009,07,01,09,43,16.80
2009,07,01,09,44,16.90
2009,07,01,09,45,17.00
2009,07,01,09,46,17.20
2009,07,01,09,47,17.30
2009,07,01,09,48,17.50
2009,07,01,09,49,17.70
2009,07,01,09,50,17.80
2009,07,01,09,51,17.90
2009,07,01,09,52,17.90
2009,07,01,09,53,17.90
2009,07,01,09,54,17.90
2009,07,01,09,55,17.90
2009,07,01,09,56,17.90
2009,07,01,09,57,17.90
2009,07,01,09,58,17.90
2009,07,01,09,59,17.90
2009,07,01,10,00,17.90
2009,07,01,10,01,17.90
2009,07,01,10,02,17.90
2009,07,01,10,03,18.10
2009,07,01,10,04,18.10
2009,07,01,10,05,18.10
2009,07,01,10,06,18.20
2009,07,01,10,07,18.30
2009,07,01,10,08,18.30
2009,07,01,10,09,18.40
2009,07,01,10,10,18.40
2009,07,01,10,11,18.30
2009,07,01,10,12,18.20
2009,07,01,10,13,18.30
2009,07,01,10,14,18.30
2009,07,01,10,15,18.40
2009,07,01,10,16,18.40
2009,07,01,10,17,18.30
2009,07,01,10,18,18.20
2009,07,01,10,19,18.20
2009,07,01,10,20,18.20
2009,07,01,10,21,18.30
2009,07,01,10,22,18.30
2009,07,01,10,23,18.20
2009,07,01,10,24,18.30
2009,07,01,10,25,18.40
2009,07,01,10,26,18.40
2009,07,01,10,27,18.40
2009,07,01,10,28,18.40
2009,07,01,10,29,18.30
2009,07,01,10,30,18.40
2009,07,01,10,31,18.50
2009,07,01,10,32,18.50
2009,07,01,10,33,18.60
2009,07,01,10,34,18.60
2009,07,01,10,35,18.60
2009,07,01,10,36,18.60
2009,07,01,10,37,18.60
2009,07,01,10,38,18.60
2009,07,01,10,39,18.70
2009,07,01,10,40,18.70
2009,07,01,10,41,18.70
2009,07,01,10,42,18.70
2009,07,01,10,43,18.70
2009,07,01,10,44,18.60
2009,07,01,10,45,18.60
2009,07,01,10,46,18.60
2009,07,01,10,47,18.50
2009,07,01,10,48,18.60
2009,07,01,10,49,18.60
2009,07,01,10,50,18.80
2009,07,01,10,51,18.90
2009,07,01,10,52,18.80
2009,07,01,10,53,18.80
2009,07,01,10,54,18.80
2009,07,01,10,55,18.80
2009,07,01,10,56,18.90
2009,07,01,10,57,19.00
2009,07,01,10,58,18.90
2009,07,01,10,59,18.90
2009,07,01,11,00,19.10
2009,07,01,11,01,19.10
2009,07,01,11,02,19.10
2009,07,01,11,03,19.10
2009,07,01,11,04,19.10
2009,07,01,11,05,19.20
2009,07,01,11,06,19.10
2009,07,01,11,07,19.10
2009,07,01,11,08,19.10
2009,07,01,11,09,19.10
2009,07,01,11,10,19.10
2009,07,01,11,11,19.10
2009,07,01,11,12,19.20
2009,07,01,11,13,19.20
2009,07,01,11,14,19.40
2009,07,01,11,15,19.50
2009,07,01,11,16,19.60
2009,07,01,11,17,19.60
2009,07,01,11,18,19.60
2009,07,01,11,19,19.60
2009,07,01,11,20,19.70
2009,07,01,11,21,19.80
2009,07,01,11,22,19.60
2009,07,01,11,23,19.50
2009,07,01,11,24,19.40
2009,07,01,11,25,19.30
2009,07,01,11,26,19.30
2009,07,01,11,27,19.30
2009,07,01,11,28,19.40
2009,07,01,11,29,19.40
2009,07,01,11,30,19.40
2009,07,01,11,31,19.50
2009,07,01,11,32,19.50
2009,07,01,11,33,19.40
2009,07,01,11,34,19.30
2009,07,01,11,35,19.30
2009,07,01,11,36,19.30
2009,07,01,11,37,19.40
2009,07,01,11,38,19.50
2009,07,01,11,39,19.50
2009,07,01,11,40,19.60
2009,07,01,11,41,19.70
2009,07,01,11,42,19.90
2009,07,01,11,43,19.90
2009,07,01,11,44,19.90
2009,07,01,11,45,20.00
2009,07,01,11,46,19.90
2009,07,01,11,47,19.90
2009,07,01,11,48,20.00
2009,07,01,11,49,20.00
2009,07,01,11,50,19.90
2009,07,01,11,51,19.90
2009,07,01,11,52,19.90
2009,07,01,11,53,19.80
2009,07,01,11,54,19.80
2009,07,01,11,55,19.70
2009,07,01,11,56,19.60
2009,07,01,11,57,19.70
2009,07,01,11,58,19.90
2009,07,01,11,59,19.90
2009,07,01,12,00,19.80
2009,07,01,12,01,19.80
2009,07,01,12,02,19.70
2009,07,01,12,03,19.60
2009,07,01,12,04,19.60
2009,07,01,12,05,19.70
2009,07,01,12,06,19.70
2009,07,01,12,07,19.70
2009,07,01,12,08,19.90
2009,07,01,12,09,19.80
2009,07,01,12,10,19.90
2009,07,01,12,11,19.90
2009,07,01,12,12,20.00
2009,07,01,12,13,20.10
2009,07,01,12,14,20.10
2009,07,01,12,15,20.20
2009,07,01,12,16,20.30
2009,07,01,12,17,20.30
2009,07,01,12,18,20.30
2009,07,01,12,19,20.20
2009,07,01,12,20,20.20
2009,07,01,12,21,20.30
2009,07,01,12,22,20.30
2009,07,01,12,23,20.20
2009,07,01,12,24,20.20
2009,07,01,12,25,20.20
2009,07,01,12,26,20.20
2009,07,01,12,27,20.20
2009,07,01,12,28,20.30
2009,07,01,12,29,20.30
2009,07,01,12,30,20.30
2009,07,01,12,31,20.30
2009,07,01,12,32,20.30
2009,07,01,12,33,20.20
2009,07,01,12,34,20.30
2009,07,01,12,35,20.40
2009,07,01,12,36,20.50
2009,07,01,12,37,20.60
2009,07,01,12,38,20.60
2009,07,01,12,39,20.60
2009,07,01,12,40,20.60
2009,07,01,12,41,20.60
2009,07,01,12,42,20.50
2009,07,01,12,43,20.50
2009,07,01,12,44,20.50
2009,07,01,12,45,20.60
2009,07,01,12,46,20.70
2009,07,01,12,47,20.70
2009,07,01,12,48,20.60
2009,07,01,12,49,20.50
2009,07,01,12,50,20.60
2009,07,01,12,51,20.70
2009,07,01,12,52,20.70
2009,07,01,12,53,20.70
2009,07,01,12,54,20.70
2009,07,01,12,55,20.80
2009,07,01,12,56,20.90
2009,07,01,12,57,20.90
2009,07,01,12,58,20.80
2009,07,01,12,59,20.80
2009,07,01,13,00,20.80
2009,07,01,13,01,20.70
2009,07,01,13,02,20.70
2009,07,01,13,03,20.70
2009,07,01,13,04,20.80
2009,07,01,13,05,20.90
2009,07,01,13,06,20.90
2009,07,01,13,07,20.80
2009,07,01,13,08,20.80
2009,07,01,13,09,20.90
2009,07,01,13,10,20.90
2009,07,01,13,11,20.90
2009,07,01,13,12,20.90
2009,07,01,13,13,20.90
2009,07,01,13,14,20.90
2009,07,01,13,15,20.90
2009,07,01,13,16,20.90
2009,07,01,13,17,20.90
2009,07,01,13,18,21.00
2009,07,01,13,19,21.00
2009,07,01,13,20,21.00
2009,07,01,13,21,21.00
2009,07,01,13,22,20.90
2009,07,01,13,23,20.80
2009,07,01,13,24,20.80
2009,07,01,13,25,20.80
2009,07,01,13,26,20.80
2009,07,01,13,27,20.90
2009,07,01,13,28,20.90
2009,07,01,13,29,20.90
2009,07,01,13,30,20.90
2009,07,01,13,31,20.80
2009,07,01,13,32,20.90
2009,07,01,13,33,21.10
2009,07,01,13,34,21.30
2009,07,01,13,35,21.50
2009,07,01,13,36,21.70
2009,07,01,13,37,21.90
2009,07,01,13,38,21.90
2009,07,01,13,39,22.00
2009,07,01,13,40,22.00
2009,07,01,13,41,21.90
2009,07,01,13,42,21.80
2009,07,01,13,43,21.80
2009,07,01,13,44,21.90
2009,07,01,13,45,22.10
2009,07,01,13,46,22.20
2009,07,01,13,47,22.30
2009,07,01,13,48,22.40
2009,07,01,13,49,22.40
2009,07,01,13,50,22.40
2009,07,01,13,51,22.40
2009,07,01,13,52,22.40
2009,07,01,13,53,22.40
2009,07,01,13,54,22.30
2009,07,01,13,55,22.20
2009,07,01,13,56,22.20
2009,07,01,13,57,22.20
2009,07,01,13,58,22.20
2009,07,01,13,59,22.10
2009,07,01,14,00,22.00
2009,07,01,14,01,21.90
2009,07,01,14,02,21.90
2009,07,01,14,03,21.80
2009,07,01,14,04,21.70
2009,07,01,14,05,21.80
2009,07,01,14,06,21.90
2009,07,01,14,07,22.00
2009,07,01,14,08,22.20
2009,07,01,14,09,22.20
2009,07,01,14,10,22.30
2009,07,01,14,11,22.20
2009,07,01,14,12,22.20
2009,07,01,14,13,22.30
2009,07,01,14,14,22.50
2009,07,01,14,15,22.60
2009,07,01,14,16,22.80
2009,07,01,14,17,22.90
2009,07,01,14,18,23.00
2009,07,01,14,19,23.10
2009,07,01,14,20,22.90
2009,07,01,14,21,22.70
2009,07,01,14,22,22.40
2009,07,01,14,23,22.20
2009,07,01,14,24,22.10
2009,07,01,14,25,21.80
2009,07,01,14,26,21.60
2009,07,01,14,27,21.50
2009,07,01,14,28,21.40
2009,07,01,14,29,21.30
2009,07,01,14,30,21.00
2009,07,01,14,31,20.80
2009,07,01,14,32,20.70
2009,07,01,14,33,20.50
2009,07,01,14,34,20.30
2009,07,01,14,35,20.20
2009,07,01,14,36,20.20
2009,07,01,14,37,20.10
2009,07,01,14,38,20.10
2009,07,01,14,39,20.10
2009,07,01,14,40,20.10
2009,07,01,14,41,20.00
2009,07,01,14,42,19.90
2009,07,01,14,43,19.80
2009,07,01,14,44,19.70
2009,07,01,14,45,19.80
2009,07,01,14,46,19.80
2009,07,01,14,47,19.70
2009,07,01,14,48,19.60
2009,07,01,14,49,19.50
2009,07,01,14,50,19.50
2009,07,01,14,51,19.60
2009,07,01,14,52,19.60
2009,07,01,14,53,19.60
2009,07,01,14,54,19.70
2009,07,01,14,55,19.70
2009,07,01,14,56,19.80
2009,07,01,14,57,19.80
2009,07,01,14,58,19.80
2009,07,01,14,59,19.80
2009,07,01,15,00,19.90
2009,07,01,15,01,19.80
2009,07,01,15,02,19.70
2009,07,01,15,03,19.60
2009,07,01,15,04,19.60
2009,07,01,15,05,19.50
2009,07,01,15,06,19.40
2009,07,01,15,07,19.50
2009,07,01,15,08,19.50
2009,07,01,15,09,19.40
2009,07,01,15,10,19.20
2009,07,01,15,11,19.20
2009,07,01,15,12,19.20
2009,07,01,15,13,19.20
2009,07,01,15,14,19.10
2009,07,01,15,15,19.20
2009,07,01,15,16,19.20
2009,07,01,15,17,19.30
2009,07,01,15,18,19.40
2009,07,01,15,19,19.60
2009,07,01,15,20,19.70
2009,07,01,15,21,19.60
2009,07,01,15,22,19.80
2009,07,01,15,23,19.90
2009,07,01,15,24,19.90
2009,07,01,15,25,19.80
2009,07,01,15,26,19.90
2009,07,01,15,27,19.90
2009,07,01,15,28,19.90
2009,07,01,15,29,19.90
2009,07,01,15,30,19.90
2009,07,01,15,31,19.80
2009,07,01,15,32,19.60
2009,07,01,15,33,19.60
2009,07,01,15,34,19.70
2009,07,01,15,35,19.80
2009,07,01,15,36,19.90
2009,07,01,15,37,19.90
2009,07,01,15,38,19.90
2009,07,01,15,39,20.00
2009,07,01,15,40,20.00
2009,07,01,15,41,19.90
2009,07,01,15,42,19.90
2009,07,01,15,43,20.00
2009,07,01,15,44,20.10
2009,07,01,15,45,20.20
2009,07,01,15,46,20.20
2009,07,01,15,47,20.20
2009,07,01,15,48,20.40
2009,07,01,15,49,20.60
2009,07,01,15,50,20.60
2009,07,01,15,51,20.50
2009,07,01,15,52,20.40
2009,07,01,15,53,20.20
2009,07,01,15,54,20.10
2009,07,01,15,55,20.00
2009,07,01,15,56,20.10
2009,07,01,15,57,20.20
2009,07,01,15,58,20.20
2009,07,01,15,59,20.30
2009,07,01,16,00,20.30
2009,07,01,16,01,20.50
2009,07,01,16,02,20.60
2009,07,01,16,03,20.70
2009,07,01,16,04,20.80
2009,07,01,16,05,20.90
2009,07,01,16,06,20.90
2009,07,01,16,07,21.00
2009,07,01,16,08,21.00
2009,07,01,16,09,21.00
2009,07,01,16,10,21.00
2009,07,01,16,11,20.90
2009,07,01,16,12,20.90
2009,07,01,16,13,20.80
2009,07,01,16,14,20.80
2009,07,01,16,15,20.80
2009,07,01,16,16,20.80
2009,07,01,16,17,20.90
2009,07,01,16,18,20.90
2009,07,01,16,19,20.90
2009,07,01,16,20,20.90
2009,07,01,16,21,20.90
2009,07,01,16,22,20.90
2009,07,01,16,23,20.80
2009,07,01,16,24,20.90
2009,07,01,16,25,21.00
2009,07,01,16,26,21.00
2009,07,01,16,27,21.20
2009,07,01,16,28,21.30
2009,07,01,16,29,21.20
2009,07,01,16,30,21.10
2009,07,01,16,31,21.10
2009,07,01,16,32,21.30
2009,07,01,16,33,21.30
2009,07,01,16,34,21.40
2009,07,01,16,35,21.30
2009,07,01,16,36,21.10
2009,07,01,16,37,20.90
2009,07,01,16,38,20.90
2009,07,01,16,39,21.00
2009,07,01,16,40,21.00
2009,07,01,16,41,21.10
2009,07,01,16,42,21.20
2009,07,01,16,43,21.10
2009,07,01,16,44,21.00
2009,07,01,16,45,20.80
2009,07,01,16,46,20.50
2009,07,01,16,47,20.40
2009,07,01,16,48,20.20
2009,07,01,16,49,20.20
2009,07,01,16,50,20.40
2009,07,01,16,51,20.50
2009,07,01,16,52,20.60
2009,07,01,16,53,20.60
2009,07,01,16,54,20.60
2009,07,01,16,55,20.60
2009,07,01,16,56,20.60
2009,07,01,16,57,20.50
2009,07,01,16,58,20.40
2009,07,01,16,59,20.50
2009,07,01,17,00,20.60
2009,07,01,17,01,20.80
2009,07,01,17,02,20.80
2009,07,01,17,03,20.90
2009,07,01,17,04,21.00
2009,07,01,17,05,20.80
2009,07,01,17,06,20.70
2009,07,01,17,07,20.80
2009,07,01,17,08,20.80
2009,07,01,17,09,20.90
2009,07,01,17,10,21.00
2009,07,01,17,11,21.10
2009,07,01,17,12,21.10
2009,07,01,17,13,21.00
2009,07,01,17,14,20.80
2009,07,01,17,15,20.80
2009,07,01,17,16,20.80
2009,07,01,17,17,20.80
2009,07,01,17,18,20.80
2009,07,01,17,19,20.80
2009,07,01,17,20,20.90
2009,07,01,17,21,20.90
2009,07,01,17,22,21.00
2009,07,01,17,23,21.10
2009,07,01,17,24,21.20
2009,07,01,17,25,21.10
2009,07,01,17,26,21.10
2009,07,01,17,27,20.90
2009,07,01,17,28,20.90